Tacoma Narrows, WA

9:59 PM PDT on July 27, 2017 (GMT -0700)
Tacoma Narrows

Weather History for KTIW - January, 2014

Change the Weather History Date:

Friday, January 31, 2014

  Actual Average Record
Temperature  
Mean Temperature 40 °F -  
Max Temperature 43 °F 46 °F 60 °F (1998)
Min Temperature 37 °F 37 °F 30 °F (2007)
Degree Days  
Heating Degree Days 25    
Moisture  
Dew Point 36 °F    
Average Humidity 83    
Maximum Humidity 93    
Minimum Humidity 67    
Precipitation  
Precipitation 0.05 in - - ()
Sea Level Pressure  
Sea Level Pressure 30.05 in    
Wind  
Wind Speed 7 mph (South)    
Max Wind Speed 12 mph    
Max Gust Speed -    
Visibility 9 miles    
Events Rain    
Averages and records for this station are not official NWS values.
T = Trace of Precipitation, MM = Missing Value Source: NWS Daily Summary

Daily Weather History Graph

Daily Weather History Graph

Search for Another Location

Airport or City:

Trip Planner

Search our weather history database for the weather conditions in past years. The results will help you decide how hot, cold, wet, or windy it might be!

Date:

Astronomy

Jan. 31, 2014 Rise Set
Actual Time 7:37 AM PST 5:11 PM PST
Civil Twilight 7:04 AM PST 5:43 PM PST
Nautical Twilight 6:27 AM PST 6:20 PM PST
Astronomical Twilight 5:51 AM PST 6:56 PM PST
Moon 7:43 AM PST (1/31) 6:51 PM PST (1/31)
Length of Visible Light 10h 39m
Length of Day
9h 34m
New Moon, 1% of the Moon is Illuminated
Jan 31
New Moon
Feb 6
First Quarter
Feb 14
Full
Feb 22
Last Quarter
Mar 1
New

Hourly Weather History & Observations

Time (PST) Temp. Windchill Dew Point Humidity Pressure Visibility Wind Dir Wind Speed Gust Speed Precip Events Conditions
12:46 AM 42.8 °F 37.5 °F 37.4 °F 81% 29.94 in 10.0 mi South 9.2 mph - N/A   Overcast
12:53 AM 42.1 °F 37.1 °F 37.0 °F 82% 29.94 in 10.0 mi South 8.1 mph - N/A   Overcast
1:53 AM 42.1 °F 36.1 °F 37.9 °F 85% 29.95 in 10.0 mi South 10.4 mph - N/A   Overcast
2:12 AM 42.8 °F 38.0 °F 37.4 °F 81% 29.95 in 10.0 mi South 8.1 mph - N/A   Overcast
2:37 AM 42.8 °F 37.5 °F 37.4 °F 81% 29.95 in 10.0 mi South 9.2 mph - N/A   Overcast
2:53 AM 42.1 °F 35.7 °F 37.9 °F 85% 29.96 in 10.0 mi South 11.5 mph - 0.00 in Rain Light Rain
3:36 AM 42.8 °F 37.0 °F 37.4 °F 81% 29.96 in 10.0 mi South 10.4 mph - 0.00 in   Overcast
3:46 AM 42.8 °F 38.6 °F 37.4 °F 81% 29.96 in 10.0 mi SSW 6.9 mph - 0.00 in   Overcast
3:53 AM 42.1 °F 37.7 °F 37.9 °F 85% 29.97 in 10.0 mi South 6.9 mph - 0.00 in   Overcast
4:20 AM 42.8 °F 40.1 °F 37.4 °F 81% 29.97 in 10.0 mi SSW 4.6 mph - N/A   Unknown
4:50 AM 41.0 °F 36.4 °F 37.4 °F 87% 29.97 in 10.0 mi SSW 6.9 mph - N/A   Overcast
4:53 AM 41.0 °F 36.4 °F 37.9 °F 89% 29.99 in 10.0 mi SSW 6.9 mph - N/A   Overcast
5:53 AM 41.0 °F 35.8 °F 37.9 °F 89% 30.00 in 10.0 mi SSW 8.1 mph - 0.00 in   Overcast
6:53 AM 41.0 °F 37.1 °F 37.9 °F 89% 30.01 in 10.0 mi SSW 5.8 mph - N/A   Overcast
7:53 AM 41.0 °F 39.0 °F 39.0 °F 93% 30.03 in 3.0 mi SSW 3.5 mph - N/A   Overcast
8:53 AM 42.1 °F 40.2 °F 39.0 °F 89% 30.06 in 3.0 mi SSW 3.5 mph - N/A   Overcast
9:53 AM 41.0 °F 37.1 °F 37.9 °F 89% 30.08 in 5.0 mi North 5.8 mph - N/A   Overcast
10:53 AM 39.9 °F 36.7 °F 37.9 °F 93% 30.10 in 3.0 mi NNE 4.6 mph - 0.04 in Rain Light Rain
11:19 AM 39.2 °F 35.9 °F 37.4 °F 93% 30.10 in 2.5 mi NE 4.6 mph - 0.00 in Rain Light Rain
11:53 AM 41.0 °F 39.0 °F 37.9 °F 89% 30.10 in 10.0 mi NE 3.5 mph - 0.00 in   Overcast
12:53 PM 41.0 °F 38.0 °F 36.0 °F 82% 30.10 in 10.0 mi NE 4.6 mph - N/A   Overcast
1:53 PM 42.1 °F 40.2 °F 36.0 °F 79% 30.10 in 10.0 mi Variable 3.5 mph - N/A   Overcast
2:53 PM 43.0 °F 39.5 °F 36.0 °F 76% 30.10 in 10.0 mi NNE 5.8 mph - N/A   Mostly Cloudy
3:53 PM 43.0 °F 39.5 °F 34.0 °F 71% 30.12 in 10.0 mi NNE 5.8 mph - N/A   Overcast
4:53 PM 42.1 °F 39.2 °F 33.1 °F 70% 30.13 in 10.0 mi NNE 4.6 mph - N/A   Overcast
5:53 PM 42.1 °F 39.2 °F 33.1 °F 70% 30.14 in 10.0 mi North 4.6 mph - N/A   Mostly Cloudy
6:53 PM 41.0 °F - 30.9 °F 67% 30.14 in 10.0 mi Calm Calm - 0.01 in Rain Light Rain
7:53 PM 39.0 °F - 34.0 °F 82% 30.14 in 10.0 mi Calm Calm - 0.00 in   Overcast
8:53 PM 37.9 °F - 34.0 °F 86% 30.15 in 10.0 mi Calm Calm - 0.00 in   Overcast
9:00 PM 37.4 °F - 33.8 °F 87% 30.14 in 10.0 mi Calm Calm - N/A   Unknown
9:53 PM 39.0 °F - 33.1 °F 79% 30.16 in 10.0 mi Calm Calm - N/A   Unknown
10:53 PM 39.0 °F - 33.1 °F 79% 30.16 in 10.0 mi Calm Calm - N/A   Unknown
11:53 PM 39.0 °F - 33.1 °F 79% 30.17 in 10.0 mi Calm Calm - N/A   Unknown